Alabaster, AL

8:00 PM CDT on October 14, 2019 (GMT -0500)
Shelby County

Weather History for KEET - August, 2019

Change the Weather History Date:

Tuesday, August 13, 2019

  Actual Average Record
Temperature  
Mean Temperature 89 °F 80 °F  
Max Temperature 102 °F 90 °F 102 °F (2007)
Min Temperature 75 °F 71 °F 53 °F (1979)
Cooling Degree Days 24 15  
Month to date cooling degree days 239 207  
Year to date cooling degree days 1528 1337  
Since 1 June cooling degree days 1131 1068  
Growing Degree Days 38 (Base 50)    
Moisture  
Dew Point 71 °F    
Average Humidity 64    
Maximum Humidity 94    
Minimum Humidity 33    
Precipitation  
Precipitation T in 0.15 in 2.00 in (1972)
Month to date precipitation 0.50 1.91  
Year to date precipitation 31.78 35.23  
Sea Level Pressure  
Sea Level Pressure 29.88 in    
Wind  
Wind Speed 3 mph (WNW)    
Max Wind Speed 16 mph    
Max Gust Speed 24 mph    
Visibility 10 miles    
Events      
T = Trace of Precipitation, MM = Missing Value Source: NWS Daily Summary

Daily Weather History Graph

Daily Weather History Graph

Search for Another Location

Airport or City:

Astronomy

Aug. 13, 2019 Rise Set
Actual Time 6:08 AM CDT 7:35 PM CDT
Civil Twilight 5:42 AM CDT 8:01 PM CDT
Nautical Twilight 5:10 AM CDT 8:32 PM CDT
Astronomical Twilight 4:37 AM CDT 9:05 PM CDT
Moon 6:43 PM CDT (8/13) 4:16 AM CDT (8/13)
Length of Visible Light 14h 19m
Length of Day
13h 26m
Waxing Gibbous, 97% of the Moon is Illuminated
Aug 13
Waxing Gibbous
Aug 15
Full
Aug 23
Last Quarter
Aug 30
New
Sep 5
First Quarter

Hourly Weather History & Observations

Time (CDT) Temp. Heat Index Dew Point Humidity Pressure Visibility Wind Dir Wind Speed Gust Speed Precip Events Conditions
12:53 AM 78.1 °F - 72.0 °F 81% 29.88 in 10.0 mi Calm Calm - N/A   Clear
1:53 AM 78.1 °F - 73.0 °F 84% 29.88 in 9.0 mi Calm Calm - N/A   Clear
2:53 AM 77.0 °F - 73.0 °F 88% 29.88 in 9.0 mi Calm Calm - N/A   Clear
3:53 AM 75.9 °F - 73.0 °F 91% 29.88 in 8.0 mi Calm Calm - N/A   Clear
4:53 AM 75.9 °F - 73.0 °F 91% 29.89 in 8.0 mi Calm Calm - N/A   Clear
5:53 AM 75.0 °F - 72.0 °F 90% 29.89 in 8.0 mi Calm Calm - N/A   Clear
6:53 AM 75.9 °F - 72.0 °F 87% 29.90 in 7.0 mi Calm Calm - N/A   Clear
7:53 AM 82.9 °F 88.8 °F 73.0 °F 72% 29.92 in 9.0 mi Calm Calm - N/A   Clear
8:53 AM 89.1 °F 97.0 °F 73.0 °F 59% 29.93 in 10.0 mi NW 5.8 mph - N/A   Clear
9:53 AM 91.9 °F 99.5 °F 72.0 °F 52% 29.93 in 10.0 mi NNW 5.8 mph - N/A   Clear
10:53 AM 93.9 °F 102.1 °F 72.0 °F 49% 29.92 in 10.0 mi Variable 3.5 mph - N/A   Partly Cloudy
11:53 AM 95.0 °F 99.5 °F 68.0 °F 41% 29.91 in 10.0 mi Variable 6.9 mph - N/A   Clear
12:53 PM 96.1 °F 101.6 °F 69.1 °F 41% 29.88 in 10.0 mi Variable 4.6 mph - N/A   Clear
1:53 PM 100.9 °F 105.3 °F 66.0 °F 32% 29.86 in 10.0 mi North - - N/A   Clear
2:53 PM 100.9 °F 106.7 °F 68.0 °F 34% 29.83 in 10.0 mi Variable 6.9 mph - N/A   Partly Cloudy
3:53 PM 99.0 °F 102.3 °F 64.9 °F 33% 29.83 in 10.0 mi West 6.9 mph - N/A   Clear
4:53 PM 93.9 °F 100.8 °F 71.1 °F 47% 29.82 in 10.0 mi WSW 6.9 mph - N/A   Clear
5:53 PM 93.9 °F 100.8 °F 71.1 °F 47% 29.83 in 10.0 mi Variable 4.6 mph - N/A   Clear
6:53 PM 91.0 °F 99.3 °F 73.0 °F 55% 29.84 in 10.0 mi Calm Calm - N/A   Clear
7:53 PM 89.1 °F 96.0 °F 72.0 °F 57% 29.84 in 10.0 mi WNW 4.6 mph - N/A   Clear
8:53 PM 84.9 °F 92.1 °F 73.9 °F 69% 29.85 in 10.0 mi Calm Calm - N/A   Clear
9:53 PM 82.0 °F 87.4 °F 73.0 °F 74% 29.87 in 10.0 mi Calm Calm - N/A   Clear
10:53 PM 82.0 °F 87.4 °F 73.0 °F 74% 29.90 in 10.0 mi Calm Calm - N/A   Clear
11:53 PM 82.9 °F 88.0 °F 72.0 °F 69% 29.89 in 10.0 mi West 3.5 mph - N/A   Overcast